1500044400.03,10422,20.56,73832.8,12.27,1.51,0.79,0,*75
1500044401.26,10423,20.56,73828.3,12.27,1.63,0.91,0,*73
1500044402.49,10424,20.56,73832.5,12.23,1.17,0.33,0,*7B
1500044403.73,10425,20.56,73832.0,12.23,1.29,0.59,0,*7B
1500044404.96,10426,20.56,73834.8,12.23,1.21,0.37,0,*78
1500044406.16,10427,20.56,73832.0,12.23,0.97,0.13,0,*43
1500044407.38,10428,20.56,73832.8,12.21,0.83,0.05,0,*7C
1500044408.6,10429,20.56,73832.8,12.21,0.83,0.05,0,*7D
1500044409.8,10430,20.56,73832.5,12.19,0.83,0.05,0,*7E
1500044411.0,10431,20.56,73832.5,12.19,0.83,-0.07,0,*50
1500044412.25,10432,20.63,73838.3,12.17,0.87,0.17,0,*45
1500044413.47,10433,20.56,73834.5,12.17,0.97,0.17,0,*45
1500044414.7,10434,20.56,73834.8,12.15,0.63,-0.23,0,*61
1500044415.9,10435,20.56,73832.0,12.15,0.75,-0.11,0,*66
1500044417.12,10436,20.56,73834.3,12.15,0.95,0.13,0,*44
1500044418.3,10437,20.56,73832.3,12.11,0.43,-0.37,0,*61
1500044419.52,10438,20.56,73830.8,12.13,0.47,-0.29,0,*67
1500044420.75,10439,20.56,73834.0,12.13,0.91,-0.07,0,*51
1500044421.98,10440,20.56,73834.5,12.09,0.25,-0.73,0,*68
1500044423.2,10441,20.56,73830.0,12.09,0.55,-0.33,0,*6A
1500044424.42,10442,20.56,73834.3,12.07,0.13,-0.97,0,*6B
1500044425.64,10443,20.56,73834.3,12.05,0.59,-0.53,0,*6E
1500044426.85,10444,20.56,73834.8,12.07,1.05,-0.23,0,*54
1500044428.07,10445,20.56,73832.3,12.05,0.63,-0.65,0,*64
1500044429.32,10446,20.56,73834.3,12.01,0.59,-0.93,0,*63
1500044430.56,10447,20.56,73832.8,12.05,0.63,-0.97,0,*6B
1500044431.82,10448,20.56,73834.0,12.01,0.55,-1.13,0,*58
1500044433.05,10449,20.56,73834.5,12.01,0.59,-1.17,0,*51
1500044434.26,10450,20.56,73832.0,12.01,1.05,-0.69,0,*59
1500044435.5,10451,20.63,73834.8,12.05,1.13,-0.65,0,*57
1500044436.74,10452,20.56,73832.5,12.05,0.87,-1.21,0,*59
1500044437.97,10453,20.56,73834.8,12.01,0.47,-1.67,0,*52
1500044439.2,10454,20.56,73834.0,12.01,0.17,-2.27,0,*57
1500044440.44,10455,20.56,73834.0,12.01,-0.29,-2.67,0,*72
1500044441.7,10456,20.56,73834.3,12.01,0.47,-1.91,0,*5E
1500044442.94,10457,20.56,73832.8,12.01,0.47,-2.15,0,*50
1500044444.17,10458,20.56,73834.5,12.01,0.05,-2.67,0,*6C
1500044445.41,10459,20.56,73832.0,11.99,0.29,-2.55,0,*50
1500044446.63,10460,20.56,73832.0,11.99,0.17,-2.75,0,*55
1500044447.87,10461,20.56,73832.5,12.01,0.21,-2.87,0,*5E
1500044449.1,10462,20.56,73830.8,11.97,-0.41,-3.71,0,*72
1500044450.33,10463,20.56,73834.8,11.97,0.41,-3.07,0,*5F
1500044451.57,10464,20.56,73828.0,11.97,0.17,-3.43,0,*5B
1500044452.8,10465,20.56,73832.3,11.99,0.37,-3.51,0,*55
1500044453.99,10466,20.56,73832.8,11.99,0.43,-3.55,0,*51
1500044455.17,10467,20.56,73834.3,11.99,0.09,-4.05,0,*6C
1500044456.38,10468,20.56,73834.0,12.01,-0.77,-5.35,0,*77
1500044457.66,10469,20.63,73836.0,11.97,-1.47,-6.19,0,*45
1500044458.9,10470,20.56,73830.3,11.97,-1.35,-6.59,0,*4C
1500044460.14,10471,20.56,73830.5,11.95,-2.23,-7.77,0,*46
1500044461.39,10472,20.56,73832.0,11.95,-2.07,-7.83,0,*48
1500044462.64,10473,20.56,73832.0,11.93,-2.11,-7.99,0,*43
1500044463.85,10474,20.56,73828.3,11.93,-1.95,-7.83,0,*40
1500044465.06,10475,20.56,73830.0,11.89,-2.67,-8.59,0,*4C
1500044466.24,10476,20.56,73832.8,11.89,-2.43,-8.33,0,*45
1500044467.42,10477,20.56,73828.0,11.89,-1.79,-7.53,0,*47
1500044468.61,10478,20.56,73830.5,11.89,-1.55,-6.85,0,*4C
1500044469.82,10479,20.56,73828.0,11.89,-0.97,-5.51,0,*78
1500044471.04,10480,20.56,73830.3,11.89,-0.45,-4.85,0,*79
1500044472.22,10481,20.56,73830.5,11.89,-0.41,-4.45,0,*70
1500044473.44,10482,20.56,73828.5,11.89,-1.05,-5.39,0,*48
1500044474.68,10483,20.56,73830.3,11.89,-1.09,-5.69,0,*40
1500044475.89,10484,20.56,73826.8,11.89,-1.09,-5.51,0,*4C
1500044477.17,10485,20.56,73828.5,11.91,-1.05,-5.31,0,*4E
1500044478.39,10486,20.56,73828.0,11.85,-0.77,-5.03,0,*7D
1500044479.63,10487,20.56,73830.5,11.87,-0.81,-4.77,0,*75
1500044480.82,10488,20.56,73828.0,11.89,0.01,-3.67,0,*67
1500044482.02,10489,20.56,73830.3,11.89,-0.11,-3.55,0,*7B
1500044483.23,10490,20.56,73830.0,11.89,0.17,-3.67,0,*59
1500044484.46,10491,20.56,73830.3,11.87,0.43,-3.59,0,*5A
1500044485.7,10492,20.56,73832.0,11.87,-0.65,-5.11,0,*7A
1500044486.92,10493,20.56,73830.8,11.87,-0.81,-5.47,0,*72
1500044488.18,10494,20.63,73834.0,11.87,-0.93,-5.65,0,*76
1500044489.42,10495,20.56,73830.8,11.89,-0.85,-5.81,0,*74
1500044490.67,10496,20.56,73830.3,11.87,-0.53,-5.23,0,*7A
1500044491.91,10497,20.56,73828.5,11.85,-0.23,-4.89,0,*7F
1500044493.13,10498,20.56,73830.3,11.85,-0.11,-4.81,0,*79
1500044494.35,10499,20.56,73832.3,11.85,-0.11,-5.15,0,*74
1500044495.56,10500,20.56,73832.3,11.85,0.09,-5.07,0,*62
1500044496.79,10501,20.63,73832.0,11.85,0.37,-5.19,0,*51
1500044498.03,10502,20.56,73828.8,11.87,-0.19,-5.93,0,*73
1500044499.25,10503,20.56,73828.3,11.85,-1.09,-7.23,0,*49
1500044500.47,10504,20.56,73830.3,11.85,-0.57,-6.63,0,*71
1500044501.66,10505,20.56,73828.8,11.85,-0.69,-6.89,0,*79
1500044502.84,10506,20.56,73828.0,11.85,-0.69,-6.89,0,*7A
1500044504.07,10507,20.56,73830.3,11.87,-0.57,-6.81,0,*7C
1500044505.28,10508,20.63,73832.8,11.85,-0.23,-6.35,0,*7D
1500044506.47,10509,20.56,73828.3,11.85,-0.33,-6.51,0,*7F
1500044507.7,10510,20.56,73828.3,11.87,-0.81,-7.05,0,*7C
1500044508.95,10511,20.56,73830.3,11.85,-1.01,-7.27,0,*46
1500044510.16,10512,20.56,73830.0,11.85,-0.77,-6.97,0,*7F
1500044511.38,10513,20.63,73830.8,11.85,-1.25,-7.39,0,*4D
1500044512.62,10514,20.56,73828.0,11.81,-0.93,-7.01,0,*79
1500044513.87,10515,20.56,73830.0,11.79,-1.01,-6.35,0,*43
1500044515.11,10516,20.56,73828.5,11.79,-0.89,-5.97,0,*7A
1500044516.32,10517,20.56,73828.3,11.79,-0.49,-5.47,0,*7A
1500044517.58,10518,20.56,73830.3,11.75,0.17,-4.89,0,*5C
1500044518.82,10519,20.56,73830.3,11.73,-0.23,-4.93,0,*7A
1500044520.06,10520,20.56,73830.5,11.75,0.63,-3.71,0,*54
1500044521.32,10521,20.56,73830.8,11.75,0.79,-3.43,0,*5F
1500044522.55,10522,20.56,73826.3,11.75,0.41,-3.91,0,*58
1500044523.77,10523,20.56,73830.3,11.73,-0.57,-5.19,0,*73
1500044524.99,10524,20.56,73830.3,11.73,-0.85,-6.31,0,*72
1500044526.23,10525,20.56,73828.3,11.71,-0.85,-6.09,0,*7A
1500044527.46,10526,20.56,73828.3,11.71,0.01,-4.77,0,*63
1500044528.71,10527,20.56,73824.8,11.71,0.59,-3.51,0,*5C
1500044529.97,10528,20.56,73828.5,11.71,0.75,-2.75,0,*5A
1500044531.2,10529,20.56,73826.8,11.71,0.25,-3.15,0,*59
1500044532.4,10530,20.56,73830.8,11.71,0.01,-3.31,0,*61
1500044533.63,10531,20.63,73830.3,11.71,0.13,-3.11,0,*51
1500044534.87,10532,20.56,73826.8,11.71,-0.53,-3.67,0,*7A
1500044536.13,10533,20.56,73824.3,11.67,0.29,-2.67,0,*5D
1500044537.35,10534,20.56,73830.0,11.67,0.33,-2.43,0,*57
1500044538.59,10535,20.56,73828.3,11.65,0.63,-2.07,0,*51
1500044539.82,10536,20.56,73828.0,11.65,0.29,-2.11,0,*5B
1500044541.05,10537,20.56,73826.8,11.63,0.25,-2.47,0,*53
1500044542.29,10538,20.56,73824.8,11.63,0.79,-2.11,0,*56
1500044543.49,10539,20.63,73830.8,11.63,0.67,-2.87,0,*57
1500044544.74,10540,20.56,73830.0,11.61,0.71,-3.51,0,*56
1500044545.99,10541,20.63,73830.0,11.61,0.75,-3.63,0,*52
1500044547.2,10542,20.56,73826.5,11.63,0.29,-4.29,0,*53
1500044548.43,10543,20.56,73828.0,11.61,0.21,-4.57,0,*51
1500044549.66,10544,20.56,73830.5,11.59,0.37,-4.69,0,*57
1500044550.85,10545,20.56,73826.0,11.59,-0.29,-5.55,0,*7A
1500044552.08,10546,20.56,73828.0,11.57,-1.21,-6.31,0,*4F
1500044553.32,10547,20.56,73830.0,11.57,-1.01,-6.13,0,*4C
1500044554.54,10548,20.56,73830.0,11.51,-1.47,-6.73,0,*41
1500044555.73,10549,20.63,73830.0,11.51,-0.45,-5.43,0,*73
1500044556.93,10550,20.63,73830.0,11.47,-1.21,-5.97,0,*46
1500044558.15,10551,20.63,73828.5,11.47,-0.81,-4.93,0,*79
1500044559.34,10552,20.63,73828.5,11.47,-0.41,-4.17,0,*7A
1500044560.55,10553,20.56,73828.0,11.45,-0.65,-4.45,0,*78
1500044561.75,10554,20.56,73824.3,11.43,-0.73,-4.53,0,*79
1500044562.97,10555,20.56,73826.5,11.43,-0.45,-4.01,0,*7A
1500044564.18,10556,20.56,73828.0,11.41,-0.37,-3.87,0,*77
1500044565.38,10557,20.56,73828.5,11.41,-0.61,-4.17,0,*7B
1500044566.59,10558,20.56,73830.3,11.39,-0.41,-4.37,0,*7B
1500044567.83,10559,20.56,73828.3,11.39,-0.85,-4.93,0,*7C
1500044569.09,10560,20.63,73828.8,11.35,-1.05,-5.31,0,*4A
1500044570.33,10561,20.63,73828.3,11.35,-1.17,-5.61,0,*4D
1500044571.52,10562,20.56,73828.3,11.35,-0.65,-4.99,0,*7C
1500044572.75,10563,20.63,73830.8,11.29,-0.73,-5.15,0,*72
1500044574.0,10564,20.56,73826.5,11.29,-1.01,-5.31,0,*47
1500044575.22,10565,20.56,73826.8,11.29,-0.85,-4.17,0,*7E
1500044576.41,10566,20.63,73830.3,11.25,-0.41,-2.79,0,*77
1500044577.64,10567,20.56,73828.5,11.27,0.13,-1.63,0,*56
1500044578.84,10568,20.63,73830.3,11.25,0.47,-0.77,0,*6E
1500044580.08,10569,20.56,73826.8,11.23,0.47,-0.37,0,*6D
1500044581.31,10570,20.56,73824.5,11.23,0.71,0.09,0,*70
1500044582.53,10571,20.56,73828.3,11.21,0.67,0.13,0,*4F
1500044583.73,10572,20.63,73828.5,11.21,0.51,0.01,0,*7A
1500044584.97,10573,20.56,73830.0,11.19,1.01,0.63,0,*70
1500044586.24,10574,20.56,73826.8,11.19,1.13,0.51,0,*75
1500044587.48,10575,20.56,73828.3,11.17,1.09,0.47,0,*76
1500044588.69,10576,20.56,73824.8,11.17,1.41,0.71,0,*7C
1500044589.9,10577,20.56,73830.3,11.17,1.41,0.71,0,*7D
1500044591.13,10578,20.56,73826.8,11.17,1.51,0.55,0,*75
1500044592.36,10579,20.63,73830.3,11.15,1.05,0.13,0,*75
1500044593.63,10580,20.56,73824.3,11.15,1.63,0.55,0,*71
1500044594.86,10581,20.56,73824.8,11.13,1.85,0.67,0,*7F
1500044596.1,10582,20.56,73828.0,11.15,1.63,0.05,0,*46
1500044597.36,10583,20.63,73828.3,11.11,0.91,-0.93,0,*6D
1500044598.6,10584,20.63,73828.3,11.07,0.71,-1.55,0,*58
1500044599.84,10585,20.56,73828.3,11.07,0.75,-1.71,0,*5B
1500044601.08,10586,20.56,73824.8,11.07,0.51,-2.31,0,*59
1500044602.33,10587,20.56,73824.3,11.05,0.87,-1.99,0,*50
1500044603.55,10588,20.56,73830.0,11.05,0.71,-2.23,0,*54
1500044604.8,10589,20.56,73826.5,11.03,0.67,-2.11,0,*55
1500044606.04,10590,20.63,73828.3,11.03,0.25,-2.39,0,*51
1500044607.26,10591,20.63,73830.0,10.99,0.17,-2.43,0,*5E
1500044608.49,10592,20.56,73828.5,11.01,0.55,-1.95,0,*53
1500044609.72,10593,20.56,73824.8,10.99,0.91,-1.51,0,*52
1500044610.92,10594,20.56,73826.8,10.99,1.41,-1.17,0,*6B
1500044612.13,10595,20.56,73824.5,10.99,1.05,-1.63,0,*69
1500044613.38,10596,20.56,73830.3,10.99,0.95,-1.91,0,*5F
1500044614.6,10597,20.56,73826.5,10.99,0.83,-2.19,0,*5A
1500044615.81,10598,20.56,73826.8,10.97,0.87,-2.23,0,*56
1500044617.0,10599,20.56,73828.8,10.97,1.05,-1.79,0,*60
1500044618.24,10600,20.56,73828.3,10.97,1.13,-1.87,0,*65
1500044619.47,10601,20.56,73824.8,10.97,0.91,-1.99,0,*50
1500044620.7,10602,20.63,73826.8,10.95,0.37,-2.39,0,*54
1500044621.9,10603,20.63,73830.8,10.97,0.51,-2.31,0,*5F
1500044623.15,10604,20.56,73824.8,10.95,0.33,-2.51,0,*58
1500044624.41,10605,20.56,73828.0,10.95,0.25,-2.67,0,*5B
1500044625.64,10606,20.56,73828.3,10.95,-0.27,-3.15,0,*73
1500044626.84,10607,20.56,73826.5,10.93,-0.65,-3.67,0,*77
1500044628.09,10608,20.56,73824.5,10.95,-1.05,-4.25,0,*48
1500044629.33,10609,20.63,73828.5,10.93,-2.03,-5.11,0,*4C
1500044630.6,10610,20.63,73830.0,10.91,-2.07,-5.11,0,*42
1500044631.83,10611,20.56,73826.3,10.91,-2.39,-5.73,0,*4A
1500044633.04,10612,20.56,73824.3,10.89,-3.43,-6.47,0,*48
1500044634.23,10613,20.56,73826.8,10.85,-2.99,-6.13,0,*42
1500044635.44,10614,20.56,73826.3,10.85,-3.15,-6.23,0,*43
1500044636.65,10615,20.63,73828.0,10.85,-2.99,-5.93,0,*4F
1500044637.86,10616,20.56,73824.8,10.81,-3.55,-6.05,0,*45
1500044639.09,10617,20.63,73828.3,10.83,-3.51,-5.97,0,*4A
1500044640.28,10618,20.56,73826.5,10.81,-3.27,-5.47,0,*4B
1500044641.53,10619,20.63,73826.8,10.79,-3.15,-5.27,0,*4A
1500044642.75,10620,20.56,73826.8,10.77,-3.35,-5.65,0,*4A
1500044643.98,10621,20.56,73824.0,10.77,-2.71,-5.11,0,*49
1500044645.2,10622,20.56,73826.0,10.75,-2.99,-5.35,0,*48
1500044646.39,10623,20.56,73826.0,10.73,-3.27,-5.43,0,*4A
1500044647.61,10624,20.63,73828.3,10.73,-3.39,-5.03,0,*46
1500044648.86,10625,20.56,73824.0,10.71,-3.31,-4.85,0,*42
1500044650.08,10626,20.63,73828.0,10.69,-3.39,-5.11,0,*4C
1500044651.33,10627,20.63,73824.8,10.69,-3.51,-5.61,0,*44
1500044652.52,10628,20.56,73824.0,10.67,-4.09,-6.31,0,*49
1500044653.73,10629,20.56,73826.0,10.63,-4.37,-7.01,0,*43
1500044654.94,10630,20.56,73826.5,10.63,-4.53,-7.77,0,*48
1500044656.18,10631,20.56,73824.8,10.63,-5.07,-8.81,0,*4F
1500044657.37,10632,20.63,73826.0,10.59,-4.53,-7.87,0,*4C
1500044658.61,10633,20.63,73826.0,10.61,-4.41,-7.77,0,*4A
1500044659.82,10634,20.56,73826.3,10.59,-4.69,-8.17,0,*45
1500044661.01,10635,20.56,73824.5,10.59,-4.99,-8.37,0,*49
1500044662.24,10636,20.56,73824.0,10.57,-4.77,-8.29,0,*4B
1500044663.43,10637,20.63,73824.0,10.55,-5.35,-8.97,0,*4A
1500044664.65,10638,20.63,73824.8,10.53,-6.39,-10.23,0,*7A
1500044665.91,10639,20.56,73826.3,10.53,-5.81,-9.41,0,*47
1500044667.16,10640,20.63,73826.0,10.51,-5.89,-9.49,0,*4B
1500044668.36,10641,20.56,73824.3,10.51,-6.51,-9.93,0,*4B
1500044669.58,10642,20.63,73824.3,10.49,-6.69,-10.05,0,*7D
1500044670.8,10643,20.56,73824.8,10.49,-6.55,-9.93,0,*44
1500044672.0,10644,20.56,73820.8,10.47,-6.55,-9.67,0,*46
1500044673.24,10645,20.56,73820.0,10.45,-6.97,-9.97,0,*44
1500044674.47,10646,20.56,73822.5,10.41,-7.53,-10.35,0,*7A
1500044675.7,10647,20.63,73824.3,10.41,-7.39,-9.97,0,*47
1500044676.9,10648,20.56,73824.5,10.39,-6.81,-9.23,0,*4A
1500044678.13,10649,20.63,73826.8,10.37,-6.27,-8.67,0,*48
1500044679.35,10650,20.63,73824.0,10.37,-6.01,-8.55,0,*45
1500044680.56,10651,20.56,73822.5,10.35,-6.39,-8.45,0,*4C
1500044681.78,10652,20.63,73826.8,10.33,-6.51,-7.77,0,*49
1500044682.96,10653,20.63,73828.5,10.33,-4.99,-6.13,0,*4D
1500044684.19,10654,20.56,73826.5,10.31,-4.29,-5.55,0,*42
1500044685.4,10655,20.56,73822.3,10.29,-4.13,-5.69,0,*4C
1500044686.65,10656,20.56,73826.3,10.27,-4.05,-5.61,0,*4E
1500044687.91,10657,20.56,73826.0,10.27,-3.27,-5.03,0,*4C
1500044689.15,10658,20.63,73824.8,10.25,-3.43,-5.77,0,*40
1500044690.37,10659,20.56,73824.0,10.25,-3.35,-5.81,0,*49
1500044691.56,10660,20.63,73824.8,10.25,-4.21,-6.43,0,*4C
1500044692.75,10661,20.56,73820.0,10.25,-4.57,-6.73,0,*4F
1500044693.99,10662,20.63,73826.0,10.23,-4.73,-6.85,0,*45
1500044695.18,10663,20.56,73826.5,10.21,-4.99,-6.89,0,*4E
1500044696.39,10664,20.56,73826.0,10.23,-4.99,-6.89,0,*4B
1500044697.62,10665,20.56,73824.8,10.21,-5.55,-8.07,0,*41
1500044698.83,10666,20.56,73826.3,10.17,-6.73,-9.45,0,*47
1500044700.09,10667,20.56,73822.8,10.15,-7.35,-10.15,0,*7A
1500044701.28,10668,20.56,73824.3,10.13,-6.85,-9.67,0,*44
1500044702.51,10669,20.56,73826.0,10.13,-6.51,-9.11,0,*4D
1500044703.73,10670,20.56,73826.0,10.11,-6.55,-8.85,0,*4F
1500044704.96,10671,20.56,73824.8,10.13,-7.11,-9.53,0,*47
1500044706.25,10672,20.63,73824.0,10.11,-9.15,-11.89,0,*72
1500044707.51,10673,20.63,73824.8,10.11,-10.19,-12.75,0,*47
1500044708.77,10674,20.63,73824.8,10.07,-10.31,-12.61,0,*48
1500044710.0,10675,20.63,73826.5,10.05,-10.05,-12.11,0,*4B
1500044711.22,10676,20.56,73824.3,10.03,-9.23,-11.29,0,*7A
1500044712.46,10677,20.56,73824.8,10.05,-9.11,-11.11,0,*77
1500044713.68,10678,20.63,73824.8,10.03,-9.93,-11.93,0,*7E
1500044714.9,10679,20.56,73826.5,10.03,-10.01,-12.07,0,*42
1500044716.13,10680,20.63,73824.8,10.01,-10.19,-12.29,0,*43
1500044717.39,10681,20.56,73824.3,10.01,-8.85,-10.79,0,*79
1500044718.61,10682,20.56,73822.8,9.99,-8.59,-10.41,0,*49
1500044719.84,10683,20.56,73826.5,9.99,-9.15,-10.93,0,*4E
1500044721.08,10684,20.63,73824.5,9.95,-8.89,-10.67,0,*4A
1500044722.28,10685,20.63,73826.0,9.95,-9.05,-10.85,0,*42
1500044723.49,10686,20.56,73826.5,9.95,-9.53,-11.23,0,*4F
1500044724.73,10687,20.56,73824.8,9.95,-9.57,-11.51,0,*4F
1500044725.97,10688,20.63,73826.0,9.93,-9.61,-11.45,0,*46
1500044727.24,10689,20.56,73824.0,9.93,-9.45,-11.07,0,*47
1500044728.49,10690,20.63,73824.0,9.91,-9.49,-11.29,0,*4D
1500044729.74,10691,20.56,73824.3,9.91,-9.37,-11.07,0,*49
1500044730.99,10692,20.56,73826.0,9.89,-9.11,-10.93,0,*4B
1500044732.22,10693,20.56,73820.3,9.91,-8.71,-10.63,0,*4B
1500044733.44,10694,20.56,73824.3,9.89,-8.59,-10.53,0,*4C
1500044734.64,10695,20.56,73824.3,9.91,-8.97,-11.01,0,*40
1500044735.89,10696,20.56,73824.5,9.89,-8.71,-10.75,0,*40
1500044737.09,10697,20.63,73824.0,9.87,-8.59,-10.57,0,*45
1500044738.31,10698,20.56,73826.5,9.89,-7.87,-10.23,0,*4B
1500044739.58,10699,20.63,73824.3,9.89,-7.05,-9.41,0,*7C
1500044740.79,10700,20.63,73824.3,9.89,-6.31,-8.89,0,*7E
1500044742.0,10701,20.56,73826.5,9.89,-6.13,-8.55,0,*7E
1500044743.22,10702,20.56,73826.8,9.89,-6.59,-8.71,0,*75
1500044744.43,10703,20.56,73820.8,9.87,-6.85,-9.15,0,*78
1500044745.63,10704,20.63,73826.3,9.85,-6.31,-8.67,0,*76
1500044746.87,10705,20.63,73826.8,9.87,-4.93,-7.43,0,*76
1500044748.13,10706,20.56,73826.5,9.85,-3.43,-5.73,0,*7C
1500044749.34,10707,20.63,73826.0,9.85,-2.79,-4.65,0,*73
1500044750.55,10708,20.56,73824.8,9.85,-2.27,-4.33,0,*74
1500044751.77,10709,20.63,73824.8,9.87,-2.07,-4.13,0,*77
1500044752.98,10710,20.63,73826.3,9.87,-1.87,-3.87,0,*7E
1500044754.2,10711,20.56,73826.0,9.85,-1.55,-3.55,0,*7D
1500044755.41,10712,20.63,73826.0,9.85,-1.29,-3.19,0,*7D
1500044756.63,10713,20.63,73824.3,9.85,-1.25,-3.27,0,*7D
1500044757.86,10714,20.56,73822.8,9.85,-1.29,-3.51,0,*77
1500044759.09,10715,20.63,73826.0,9.83,-1.43,-3.63,0,*7D
1500044760.31,10716,20.63,73824.0,9.81,-1.29,-3.19,0,*7D
1500044761.56,10717,20.56,73826.5,9.81,-0.85,-2.59,0,*4E
1500044762.76,10718,20.63,73826.3,9.81,-0.29,-1.55,0,*48
1500044763.96,10719,20.63,73824.5,9.79,0.13,-1.21,0,*69
1500044765.19,10720,20.56,73826.3,9.77,0.25,-1.17,0,*6D
1500044766.42,10721,20.56,73824.8,9.77,0.17,-1.13,0,*69
1500044767.62,10722,20.56,73820.3,9.79,0.17,-1.17,0,*60
1500044768.85,10723,20.56,73822.5,9.77,0.29,-0.89,0,*54
1500044770.07,10724,20.56,73824.3,9.77,0.47,-0.69,0,*55
1500044771.32,10725,20.63,73824.3,9.77,0.83,-0.27,0,*56
1500044772.54,10726,20.56,73820.0,9.73,0.87,-0.07,0,*67
1500044773.77,10727,20.56,73820.8,9.73,0.87,-0.07,0,*66
1500044774.97,10728,20.63,73826.0,9.73,1.05,-0.07,0,*52
1500044776.22,10729,20.56,73824.0,9.73,1.51,0.33,0,*48
1500044777.44,10730,20.56,73822.3,9.71,1.63,0.47,0,*40
1500044778.66,10731,20.56,73822.0,9.71,1.63,0.55,0,*42
1500044779.88,10732,20.56,73822.3,9.71,1.67,0.79,0,*4B
1500044781.09,10733,20.56,73822.8,9.71,1.71,0.95,0,*4F
1500044782.29,10734,20.56,73822.5,9.71,1.79,0.87,0,*43
1500044783.51,10735,20.63,73826.3,9.69,1.89,1.01,0,*7B
1500044784.73,10736,20.56,73822.3,9.67,2.25,1.37,0,*76
1500044785.98,10737,20.56,73822.5,9.69,2.13,1.29,0,*73
1500044787.23,10738,20.56,73824.0,9.69,2.25,1.51,0,*76
1500044788.48,10739,20.63,73826.3,9.69,2.13,1.37,0,*72
1500044789.68,10740,20.63,73824.3,9.69,2.31,1.75,0,*7A
1500044790.9,10741,20.56,73822.0,9.67,2.21,1.47,0,*75
1500044792.12,10742,20.56,73820.8,9.67,2.01,1.47,0,*74
1500044793.34,10743,20.56,73822.3,9.67,2.25,1.63,0,*75
1500044794.54,10744,20.63,73824.5,9.67,2.21,1.75,0,*71
1500044795.77,10745,20.56,73822.8,9.67,1.97,1.51,0,*78
1500044796.93,10746,20.56,73820.8,9.63,1.79,1.41,0,*7E
1500044798.15,10747,20.56,73820.3,9.63,2.01,1.59,0,*7A
1500044799.37,10748,20.56,73822.3,9.63,2.13,1.71,0,*7C
1500044800.59,10749,20.56,73820.3,9.63,1.89,1.51,0,*7F
1500044801.81,10750,20.56,73820.8,9.63,1.67,1.33,0,*73
1500044803.04,10751,20.63,73824.8,9.59,1.55,1.25,0,*7D
1500044804.26,10752,20.56,73822.5,9.59,1.67,1.47,0,*7B
1500044805.46,10753,20.56,73818.5,9.59,1.89,1.79,0,*77
1500044806.68,10754,20.56,73820.3,9.59,2.13,1.97,0,*70
1500044807.88,10755,20.63,73822.8,9.59,1.79,1.55,0,*70
1500044809.1,10756,20.56,73822.5,9.59,1.51,1.25,0,*7E
1500044810.35,10757,20.56,73822.5,9.57,1.85,1.59,0,*73
1500044811.57,10758,20.56,73822.5,9.55,1.71,1.43,0,*7E
1500044812.79,10759,20.56,73820.0,9.59,1.89,1.55,0,*73
1500044814.04,10760,20.56,73820.3,9.57,1.51,1.33,0,*72
1500044815.24,10761,20.63,73822.3,9.55,1.25,0.97,0,*4D
1500044816.44,10762,20.63,73822.8,9.55,1.33,1.01,0,*77
1500044817.66,10763,20.56,73820.8,9.55,1.71,1.33,0,*71
1500044818.91,10764,20.56,73822.8,9.53,2.01,1.47,0,*77
1500044820.16,10765,20.56,73822.5,9.53,2.05,1.67,0,*70
1500044821.38,10766,20.56,73820.0,9.49,1.75,1.25,0,*7A
1500044822.6,10767,20.56,73820.0,9.53,1.67,1.41,0,*71
1500044823.85,10768,20.63,73824.8,9.49,1.55,1.25,0,*76
1500044825.04,10769,20.56,73822.5,9.49,1.75,1.41,0,*77
1500044826.27,10770,20.63,73822.8,9.47,2.17,1.89,0,*72
1500044827.5,10771,20.63,73822.3,9.49,2.17,1.75,0,*7E
1500044828.72,10772,20.56,73822.8,9.47,1.67,1.25,0,*72
1500044829.93,10773,20.63,73820.5,9.47,1.43,0.95,0,*4F
1500044831.16,10774,20.56,73820.5,9.47,1.37,0.83,0,*4C
1500044832.36,10775,20.56,73820.0,9.45,1.41,0.97,0,*4B
1500044833.58,10776,20.56,73822.3,9.45,1.01,0.67,0,*43
1500044834.8,10777,20.56,73820.8,9.45,0.97,0.75,0,*7F
1500044836.0,10778,20.63,73822.0,9.47,1.01,0.79,0,*40
1500044837.18,10779,20.56,73820.0,9.47,0.67,0.43,0,*79
1500044838.36,10780,20.63,73822.0,9.47,0.67,0.43,0,*7F
1500044839.55,10781,20.63,73824.0,9.47,0.43,0.21,0,*7C
1500044840.75,10782,20.63,73822.8,9.47,-0.23,-0.41,0,*7F
1500044841.99,10783,20.56,73822.8,9.45,-0.27,-0.37,0,*79
1500044843.22,10784,20.56,73822.3,9.45,-0.27,-0.37,0,*7E
1500044844.39,10785,20.56,73822.8,9.47,-0.33,-0.29,0,*77
1500044845.57,10786,20.56,73822.5,9.47,-0.19,-0.19,0,*7F
1500044846.79,10787,20.56,73820.8,9.45,-0.19,-0.11,0,*74
1500044847.97,10788,20.63,73826.8,9.43,-0.37,-0.33,0,*71
1500044849.16,10789,20.56,73820.0,9.43,-0.69,-0.49,0,*76
1500044850.39,10790,20.56,73820.5,9.43,-0.93,-0.85,0,*7B
1500044851.62,10791,20.56,73820.5,9.43,-1.09,-0.93,0,*4F
1500044852.86,10792,20.56,73822.8,9.41,-1.29,-1.09,0,*7E
1500044854.08,10793,20.63,73820.3,9.41,-1.29,-1.17,0,*70
1500044855.29,10794,20.56,73822.3,9.41,-1.59,-1.17,0,*70
1500044856.51,10795,20.63,73826.5,9.41,-2.35,-1.71,0,*78
1500044857.73,10796,20.63,73824.0,9.43,-3.83,-2.75,0,*72
1500044858.93,10797,20.56,73820.0,9.41,-4.45,-3.23,0,*7E
1500044860.18,10798,20.56,73820.8,9.41,-4.01,-2.79,0,*7F
1500044861.39,10799,20.56,73822.5,9.37,-5.35,-3.59,0,*7A
1500044862.6,10800,20.56,73822.3,9.41,-6.01,-3.91,0,*74
1500044863.81,10801,20.63,73824.3,9.39,-6.05,-3.83,0,*7D
1500044865.01,10802,20.56,73822.3,9.37,-6.01,-3.71,0,*79
1500044866.24,10803,20.56,73820.8,9.37,-5.65,-3.59,0,*73
1500044867.45,10804,20.56,73820.5,9.37,-5.89,-4.17,0,*7B
1500044868.69,10805,20.56,73818.8,9.37,-6.93,-4.85,0,*79
1500044869.9,10806,20.56,73820.8,9.37,-7.19,-4.93,0,*7E
1500044871.12,10807,20.56,73820.0,9.33,-7.91,-5.55,0,*70
1500044872.33,10808,20.56,73822.3,9.31,-7.83,-5.55,0,*7E
1500044873.6,10809,20.56,73820.0,9.31,-7.69,-5.31,0,*79
1500044874.86,10810,20.56,73822.3,9.31,-7.27,-5.07,0,*7E
1500044876.13,10811,20.63,73822.8,9.31,-7.05,-5.07,0,*7F
1500044877.37,10812,20.56,73822.0,9.31,-7.69,-5.55,0,*71
1500044878.59,10813,20.56,73822.8,9.27,-7.83,-5.51,0,*77
1500044879.83,10814,20.56,73820.5,9.27,-7.61,-5.47,0,*7B
1500044881.09,10815,20.63,73826.0,9.27,-8.11,-5.73,0,*75
1500044882.34,10816,20.63,73826.3,9.27,-8.51,-6.31,0,*77
1500044883.58,10817,20.56,73820.3,9.27,-9.37,-7.19,0,*7C
1500044884.79,10818,20.56,73820.5,9.27,-8.67,-6.39,0,*74
1500044886.03,10819,20.56,73820.8,9.23,-9.23,-6.93,0,*70
1500044887.24,10820,20.63,73822.5,9.23,-8.97,-6.69,0,*71
1500044888.46,10821,20.63,73824.0,9.23,-8.97,-6.55,0,*7F
1500044889.7,10822,20.56,73822.3,9.23,-9.41,-7.15,0,*73
1500044890.95,10823,20.56,73820.8,9.23,-9.41,-7.11,0,*76
1500044892.19,10824,20.56,73822.8,9.23,-9.49,-7.15,0,*7D
1500044893.46,10825,20.56,73822.5,9.23,-9.41,-6.97,0,*7F
1500044894.7,10826,20.56,73820.5,9.23,-9.71,-7.27,0,*75
1500044895.94,10827,20.56,73820.0,9.23,-10.09,-7.73,0,*42
1500044897.18,10828,20.56,73818.8,9.23,-10.49,-8.03,0,*41
1500044898.39,10829,20.56,73822.3,9.21,-10.05,-7.73,0,*42
1500044899.62,10830,20.63,73826.3,9.19,-9.89,-7.69,0,*76
1500044900.87,10831,20.63,73822.3,9.19,-10.15,-8.11,0,*4A
1500044902.05,10832,20.63,73822.3,9.17,-9.67,-7.49,0,*78
1500044903.29,10833,20.56,73822.8,9.15,-10.31,-7.95,0,*41
1500044904.54,10834,20.56,73820.5,9.15,-10.15,-7.73,0,*48
1500044905.77,10835,20.63,73826.3,9.15,-9.89,-7.57,0,*72
1500044907.0,10836,20.56,73820.0,9.15,-9.93,-7.43,0,*7F
1500044908.25,10837,20.56,73822.5,9.19,-9.71,-7.01,0,*78
1500044909.44,10838,20.56,73822.3,9.13,-9.79,-7.11,0,*74
1500044910.64,10839,20.56,73822.5,9.13,-9.71,-7.15,0,*79
1500044911.87,10840,20.63,73824.0,9.13,-10.15,-7.43,0,*4E
1500044913.11,10841,20.63,73824.8,9.11,-9.97,-7.27,0,*7D
1500044914.33,10842,20.56,73822.8,9.11,-9.71,-6.85,0,*7F